Time,TemperatureF,DewpointF,PressureIn,WindDirection,WindDirectionDegrees,WindSpeedMPH,WindSpeedGustMPH,Humidity,HourlyPrecipIn,Conditions,Clouds,dailyrainin,SoftwareType,DateUTC
2013-02-19 00:12:00,-999.0,-99.9,-100.00,SW,223,4.0,-999.0,-999,-99.99,,,-99.99,,2013-02-19 06:12:00,
2013-02-19 00:22:00,-999.0,-99.9,-100.00,SW,223,4.0,-999.0,-999,-99.99,,,-99.99,,2013-02-19 06:22:00,
2013-02-19 00:33:00,-999.0,-99.9,-100.00,SW,223,4.0,-999.0,-999,-99.99,,,-99.99,,2013-02-19 06:33:00,
2013-02-19 00:42:00,-999.0,-99.9,-100.00,SW,223,4.0,-999.0,-999,-99.99,,,-99.99,,2013-02-19 06:42:00,
2013-02-19 02:12:00,-999.0,-99.9,-100.00,SW,229,1.0,-999.0,-999,-99.99,,,-99.99,,2013-02-19 08:12:00,
2013-02-19 02:22:00,-999.0,-99.9,-100.00,SW,229,1.0,-999.0,-999,-99.99,,,-99.99,,2013-02-19 08:22:00,
2013-02-19 02:32:00,-999.0,-99.9,-100.00,SW,229,1.0,-999.0,-999,-99.99,,,-99.99,,2013-02-19 08:32:00,
2013-02-19 02:42:00,-999.0,-99.9,-100.00,SW,229,1.0,-999.0,-999,-99.99,,,-99.99,,2013-02-19 08:42:00,
2013-02-19 03:11:00,-999.0,-99.9,-100.00,NNW,339,1.0,-999.0,-999,-99.99,,,-99.99,,2013-02-19 09:11:00,
2013-02-19 03:22:00,-999.0,-99.9,-100.00,NNW,339,1.0,-999.0,-999,-99.99,,,-99.99,,2013-02-19 09:22:00,
2013-02-19 03:32:00,-999.0,-99.9,-100.00,NNW,339,1.0,-999.0,-999,-99.99,,,-99.99,,2013-02-19 09:32:00,
2013-02-19 03:42:00,-999.0,-99.9,-100.00,NNW,339,1.0,-999.0,-999,-99.99,,,-99.99,,2013-02-19 09:42:00,
2013-02-19 04:11:00,-999.0,-99.9,-100.00,West,277,2.0,-999.0,-999,-99.99,,,-99.99,,2013-02-19 10:11:00,
2013-02-19 04:22:00,-999.0,-99.9,-100.00,West,277,2.0,-999.0,-999,-99.99,,,-99.99,,2013-02-19 10:22:00,
2013-02-19 04:32:00,-999.0,-99.9,-100.00,West,277,2.0,-999.0,-999,-99.99,,,-99.99,,2013-02-19 10:32:00,
2013-02-19 04:42:00,-999.0,-99.9,-100.00,West,277,2.0,-999.0,-999,-99.99,,,-99.99,,2013-02-19 10:42:00,
2013-02-19 05:12:00,-999.0,-99.9,-100.00,ENE,72,1.0,-999.0,-999,-99.99,,,-99.99,,2013-02-19 11:12:00,
2013-02-19 05:22:00,-999.0,-99.9,-100.00,ENE,72,1.0,-999.0,-999,-99.99,,,-99.99,,2013-02-19 11:22:00,
2013-02-19 05:32:00,-999.0,-99.9,-100.00,ENE,72,1.0,-999.0,-999,-99.99,,,-99.99,,2013-02-19 11:32:00,
2013-02-19 05:42:00,-999.0,-99.9,-100.00,ENE,72,1.0,-999.0,-999,-99.99,,,-99.99,,2013-02-19 11:42:00,
2013-02-19 06:12:00,-999.0,-99.9,-100.00,West,268,3.0,-999.0,-999,-99.99,,,-99.99,,2013-02-19 12:12:00,
2013-02-19 06:22:00,-999.0,-99.9,-100.00,West,268,3.0,-999.0,-999,-99.99,,,-99.99,,2013-02-19 12:22:00,
2013-02-19 06:33:00,-999.0,-99.9,-100.00,West,268,3.0,-999.0,-999,-99.99,,,-99.99,,2013-02-19 12:33:00,
2013-02-19 06:42:00,-999.0,-99.9,-100.00,West,268,3.0,-999.0,-999,-99.99,,,-99.99,,2013-02-19 12:42:00,
2013-02-19 07:11:00,-999.0,-99.9,-100.00,WNW,283,1.0,-999.0,-999,-99.99,,,-99.99,,2013-02-19 13:11:00,
2013-02-19 07:22:00,-999.0,-99.9,-100.00,WNW,283,1.0,-999.0,-999,-99.99,,,-99.99,,2013-02-19 13:22:00,
2013-02-19 07:32:00,-999.0,-99.9,-100.00,WNW,283,1.0,-999.0,-999,-99.99,,,-99.99,,2013-02-19 13:32:00,
2013-02-19 07:42:00,-999.0,-99.9,-100.00,WNW,283,1.0,-999.0,-999,-99.99,,,-99.99,,2013-02-19 13:42:00,
2013-02-19 08:12:00,-999.0,-99.9,-100.00,NW,323,3.0,-999.0,-999,-99.99,,,-99.99,,2013-02-19 14:12:00,
2013-02-19 08:22:00,-999.0,-99.9,-100.00,NW,323,3.0,-999.0,-999,-99.99,,,-99.99,,2013-02-19 14:22:00,
2013-02-19 08:33:00,-999.0,-99.9,-100.00,NW,323,3.0,-999.0,-999,-99.99,,,-99.99,,2013-02-19 14:33:00,
2013-02-19 08:42:00,-999.0,-99.9,-100.00,NW,323,3.0,-999.0,-999,-99.99,,,-99.99,,2013-02-19 14:42:00,
2013-02-19 09:11:00,-999.0,-99.9,-100.00,SSW,210,2.0,-999.0,-999,-99.99,,,-99.99,,2013-02-19 15:11:00,
2013-02-19 09:22:00,-999.0,-99.9,-100.00,SSW,210,2.0,-999.0,-999,-99.99,,,-99.99,,2013-02-19 15:22:00,
2013-02-19 09:32:00,-999.0,-99.9,-100.00,SSW,210,2.0,-999.0,-999,-99.99,,,-99.99,,2013-02-19 15:32:00,
2013-02-19 09:42:00,-999.0,-99.9,-100.00,SSW,210,2.0,-999.0,-999,-99.99,,,-99.99,,2013-02-19 15:42:00,
2013-02-19 10:12:00,-999.0,-99.9,-100.00,SSW,208,2.0,-999.0,-999,-99.99,,,-99.99,,2013-02-19 16:12:00,
2013-02-19 10:22:00,-999.0,-99.9,-100.00,SSW,208,2.0,-999.0,-999,-99.99,,,-99.99,,2013-02-19 16:22:00,
2013-02-19 10:32:00,-999.0,-99.9,-100.00,SSW,208,2.0,-999.0,-999,-99.99,,,-99.99,,2013-02-19 16:32:00,
2013-02-19 10:42:00,-999.0,-99.9,-100.00,SSW,208,2.0,-999.0,-999,-99.99,,,-99.99,,2013-02-19 16:42:00,
2013-02-19 11:11:00,-999.0,-99.9,-100.00,NNW,337,4.0,-999.0,-999,-99.99,,,-99.99,,2013-02-19 17:11:00,
2013-02-19 11:22:00,-999.0,-99.9,-100.00,NNW,337,4.0,-999.0,-999,-99.99,,,-99.99,,2013-02-19 17:22:00,
2013-02-19 11:32:00,-999.0,-99.9,-100.00,NNW,337,4.0,-999.0,-999,-99.99,,,-99.99,,2013-02-19 17:32:00,
2013-02-19 11:42:00,-999.0,-99.9,-100.00,NNW,337,4.0,-999.0,-999,-99.99,,,-99.99,,2013-02-19 17:42:00,
2013-02-19 12:11:00,-999.0,-99.9,-100.00,SSW,194,1.0,-999.0,-999,-99.99,,,-99.99,,2013-02-19 18:11:00,
2013-02-19 12:22:00,-999.0,-99.9,-100.00,SSW,194,1.0,-999.0,-999,-99.99,,,-99.99,,2013-02-19 18:22:00,
2013-02-19 12:32:00,-999.0,-99.9,-100.00,SSW,194,1.0,-999.0,-999,-99.99,,,-99.99,,2013-02-19 18:32:00,
2013-02-19 12:42:00,-999.0,-99.9,-100.00,SSW,194,1.0,-999.0,-999,-99.99,,,-99.99,,2013-02-19 18:42:00,
2013-02-19 13:11:00,-999.0,-99.9,-100.00,NW,305,5.0,-999.0,-999,-99.99,,,-99.99,,2013-02-19 19:11:00,
2013-02-19 13:22:00,-999.0,-99.9,-100.00,NW,305,5.0,-999.0,-999,-99.99,,,-99.99,,2013-02-19 19:22:00,
2013-02-19 13:32:00,-999.0,-99.9,-100.00,NW,305,5.0,-999.0,-999,-99.99,,,-99.99,,2013-02-19 19:32:00,
2013-02-19 13:42:00,-999.0,-99.9,-100.00,NW,305,5.0,-999.0,-999,-99.99,,,-99.99,,2013-02-19 19:42:00,
2013-02-19 14:12:00,-999.0,-99.9,-100.00,WNW,284,4.0,-999.0,-999,-99.99,,,-99.99,,2013-02-19 20:12:00,
2013-02-19 14:22:00,-999.0,-99.9,-100.00,WNW,284,4.0,-999.0,-999,-99.99,,,-99.99,,2013-02-19 20:22:00,
2013-02-19 14:32:00,-999.0,-99.9,-100.00,WNW,284,4.0,-999.0,-999,-99.99,,,-99.99,,2013-02-19 20:32:00,
2013-02-19 14:42:00,-999.0,-99.9,-100.00,WNW,284,4.0,-999.0,-999,-99.99,,,-99.99,,2013-02-19 20:42:00,
2013-02-19 15:12:00,-999.0,-99.9,-100.00,North,10,4.0,-999.0,-999,-99.99,,,-99.99,,2013-02-19 21:12:00,
2013-02-19 15:22:00,-999.0,-99.9,-100.00,North,10,4.0,-999.0,-999,-99.99,,,-99.99,,2013-02-19 21:22:00,
2013-02-19 15:32:00,-999.0,-99.9,-100.00,North,10,4.0,-999.0,-999,-99.99,,,-99.99,,2013-02-19 21:32:00,
2013-02-19 15:42:00,-999.0,-99.9,-100.00,North,10,4.0,-999.0,-999,-99.99,,,-99.99,,2013-02-19 21:42:00,
2013-02-19 16:11:00,-999.0,-99.9,-100.00,WNW,298,14.0,-999.0,-999,-99.99,,,-99.99,,2013-02-19 22:11:00,
2013-02-19 16:22:00,-999.0,-99.9,-100.00,WNW,298,14.0,-999.0,-999,-99.99,,,-99.99,,2013-02-19 22:22:00,
2013-02-19 16:32:00,-999.0,-99.9,-100.00,WNW,298,14.0,-999.0,-999,-99.99,,,-99.99,,2013-02-19 22:32:00,
2013-02-19 16:42:00,-999.0,-99.9,-100.00,WNW,298,14.0,-999.0,-999,-99.99,,,-99.99,,2013-02-19 22:42:00,
2013-02-19 17:11:00,-999.0,-99.9,-100.00,NNW,327,6.0,-999.0,-999,-99.99,,,-99.99,,2013-02-19 23:11:00,
2013-02-19 17:21:00,-999.0,-99.9,-100.00,NNW,327,6.0,-999.0,-999,-99.99,,,-99.99,,2013-02-19 23:21:00,
2013-02-19 17:32:00,-999.0,-99.9,-100.00,NNW,327,6.0,-999.0,-999,-99.99,,,-99.99,,2013-02-19 23:32:00,
2013-02-19 17:42:00,-999.0,-99.9,-100.00,NNW,327,6.0,-999.0,-999,-99.99,,,-99.99,,2013-02-19 23:42:00,
2013-02-19 18:12:00,-999.0,-99.9,-100.00,NNW,346,2.0,-999.0,-999,-99.99,,,-99.99,,2013-02-20 00:12:00,
2013-02-19 18:22:00,-999.0,-99.9,-100.00,NNW,346,2.0,-999.0,-999,-99.99,,,-99.99,,2013-02-20 00:22:00,
2013-02-19 18:32:00,-999.0,-99.9,-100.00,NNW,346,2.0,-999.0,-999,-99.99,,,-99.99,,2013-02-20 00:32:00,
2013-02-19 18:42:00,-999.0,-99.9,-100.00,NNW,346,2.0,-999.0,-999,-99.99,,,-99.99,,2013-02-20 00:42:00,
2013-02-19 19:11:00,-999.0,-99.9,-100.00,NNW,339,1.0,-999.0,-999,-99.99,,,-99.99,,2013-02-20 01:11:00,
2013-02-19 19:22:00,-999.0,-99.9,-100.00,NNW,339,1.0,-999.0,-999,-99.99,,,-99.99,,2013-02-20 01:22:00,
2013-02-19 19:32:00,-999.0,-99.9,-100.00,NNW,339,1.0,-999.0,-999,-99.99,,,-99.99,,2013-02-20 01:32:00,
2013-02-19 19:42:00,-999.0,-99.9,-100.00,NNW,339,1.0,-999.0,-999,-99.99,,,-99.99,,2013-02-20 01:42:00,
2013-02-19 20:11:00,-999.0,-99.9,-100.00,NNW,341,1.0,-999.0,-999,-99.99,,,-99.99,,2013-02-20 02:11:00,
2013-02-19 20:22:00,-999.0,-99.9,-100.00,NNW,341,1.0,-999.0,-999,-99.99,,,-99.99,,2013-02-20 02:22:00,
2013-02-19 20:32:00,-999.0,-99.9,-100.00,NNW,341,1.0,-999.0,-999,-99.99,,,-99.99,,2013-02-20 02:32:00,
2013-02-19 20:42:00,-999.0,-99.9,-100.00,NNW,341,1.0,-999.0,-999,-99.99,,,-99.99,,2013-02-20 02:42:00,
2013-02-19 21:12:00,-999.0,-99.9,-100.00,SSW,199,1.0,-999.0,-999,-99.99,,,-99.99,,2013-02-20 03:12:00,
2013-02-19 21:22:00,-999.0,-99.9,-100.00,SSW,199,1.0,-999.0,-999,-99.99,,,-99.99,,2013-02-20 03:22:00,
2013-02-19 21:32:00,-999.0,-99.9,-100.00,SSW,199,1.0,-999.0,-999,-99.99,,,-99.99,,2013-02-20 03:32:00,
2013-02-19 21:42:00,-999.0,-99.9,-100.00,SSW,199,1.0,-999.0,-999,-99.99,,,-99.99,,2013-02-20 03:42:00,
2013-02-19 23:12:00,-999.0,-99.9,-100.00,SW,225,1.0,-999.0,-999,-99.99,,,-99.99,,2013-02-20 05:12:00,
2013-02-19 23:23:00,-999.0,-99.9,-100.00,SW,225,1.0,-999.0,-999,-99.99,,,-99.99,,2013-02-20 05:23:00,
2013-02-19 23:32:00,-999.0,-99.9,-100.00,SW,225,1.0,-999.0,-999,-99.99,,,-99.99,,2013-02-20 05:32:00,
2013-02-19 23:43:00,-999.0,-99.9,-100.00,SW,225,1.0,-999.0,-999,-99.99,,,-99.99,,2013-02-20 05:43:00,